TIME,DELAY(SENSOR),PRES,OXYGEN,RAWTEMP,T(OPTODE),TCPHASE,FLUOR,BETA(BETA700),BETA(BETA412),BETA(BETA440),CDOM,C(CSC),ED(ED412.20),ED(ED444.00),ED(ED489.60),ED(ED554.30),LU(LU412.10),LU(LU443.90),LU(LU489.70),LU(LU554.70),COMP,TILTX,TILTY,CHECK
1362888160,5811,907.2299804687500000,35.0619506835937500,561.8767700195312000,4.4277148246765140,56.2932395935058600,55,100,100,79,82,15529,0,0,0,0,2147124690,2147770011,2147569865,2147567058,1403,3,13,9930
1362891756,5809,962.9600219726562000,41.1541709899902340,569.6536254882812000,4.1863269805908200,55.4392890930175800,56,99,98,79,83,15526,0,0,0,0,2147123940,2147773092,2147572571,2147565138,959,2,13,7378
1362895356,5809,968.9000244140625000,41.8457183837890600,570.2879028320312000,4.1666131019592285,55.3478393554687500,56,100,99,78,82,15528,0,0,0,0,2147121947,2147775652,2147576036,2147567881,345,2,13,29199
1362898956,5811,992.7500000000000000,43.2933807373046900,572.7711791992188000,4.0894131660461430,55.1628608703613300,54,98,100,80,81,15528,0,0,0,0,2147120841,2147772525,2147580370,2147566802,396,2,13,42360
1362902556,5810,995.3400268554688000,44.2221908569335940,574.5297851562500000,4.0347061157226560,55.0562210083007800,54,99,99,78,82,15524,0,0,0,0,2147122898,2147767250,2147572699,2147565165,65,2,13,25654
1362906156,5809,998.2600097656250000,44.6763687133789060,574.8671875000000000,4.0242080688476560,54.9880104064941400,55,98,100,77,82,15527,0,0,0,0,2147124516,2147772388,2147573019,2147569929,325,2,13,37450
1362909756,5809,1006.2999877929688000,43.8882293701171900,573.9683837890625000,4.0521759986877440,55.0889511108398440,55,97,100,78,81,15527,0,0,0,0,2147121654,2147770788,2147576630,2147568493,3438,2,13,57850
1362913356,5809,1008.7100219726562000,43.7129211425781250,573.9036865234375000,4.0541858673095700,55.1148414611816400,55,97,100,79,82,15525,0,0,0,0,2147125723,2147773961,2147577179,2147564708,3217,2,13,28978
1362916956,5810,1005.8499755859375000,43.9265403747558600,574.6854248046875000,4.0298647880554200,55.0933418273925800,55,101,100,77,81,15525,0,0,0,0,2147124754,2147773120,2147573714,2147566418,24,2,13,18386
1362920556,5810,1006.4699707031250000,44.1619796752929700,574.8117065429688000,4.0259361267089840,55.0624504089355500,55,98,100,77,82,15522,0,0,0,0,2147122706,2147775040,2147575186,2147567616,54,3,13,27137
1362924156,5810,1013.0800170898438000,43.9021301269531250,574.2415771484375000,4.0436730384826660,55.0932693481445300,55,100,100,77,82,15523,0,0,0,0,2147123629,2147770605,2147575990,2147567908,224,2,13,48885
1362927756,5809,1013.9099731445312000,42.7969017028808600,573.4962158203125000,4.0668621063232420,55.2441596984863300,55,98,100,78,82,15524,0,0,0,0,2147122377,2147768886,2147574034,2147566820,213,2,13,22594
1362931356,5810,1012.7999877929688000,42.3860092163085940,573.4398193359375000,4.0686187744140625,55.3043212890625000,55,98,101,77,82,15525,0,0,0,0,2147120292,2147769984,2147571126,2147568018,251,3,13,49456
1362934956,5809,1015.3900146484375000,41.9905204772949200,572.8062133789062000,4.0883221626281740,55.3498191833496100,56,97,102,78,81,15513,0,0,0,0,2147121810,2147769334,2147576585,2147567652,335,2,13,45936
1362938556,5809,1016.7100219726562000,41.9828796386718750,572.8690185546875000,4.0863699913024900,55.3500289916992200,54,98,99,78,82,15513,0,0,0,0,2147123099,2147770660,2147574427,2147566500,175,2,13,41651
1362942156,5809,1019.3599853515625000,41.9972496032714840,572.8870849609375000,4.0858058929443360,55.3500785827636700,54,98,100,78,82,15513,0,0,0,0,2147120822,2147767131,2147574153,2147567122,3558,2,13,46051
1362945756,5809,1019.9400024414062000,41.9767799377441400,572.9337158203125000,4.0843582153320310,55.3515815734863300,54,99,99,79,82,15513,0,0,0,0,2147123136,2147771712,2147571584,2147569956,101,2,13,56491
1362949356,5810,1012.3800048828125000,42.1052398681640600,573.2305297851562000,4.0751271247863770,55.3416786193847660,55,102,100,78,83,15512,0,0,0,0,2147122477,2147771638,2147570523,2147571766,192,2,13,38951
1362952956,5809,1016.9500122070312000,42.4778099060058600,573.9982299804688000,4.0512490272521970,55.2938117980957000,55,99,101,78,82,15514,0,0,0,0,2147121517,2147769819,2147574564,2147569636,74,2,13,3889
1362956556,5809,1022.9799804687500000,44.0369606018066400,574.4434814453125000,4.0373940467834470,55.0756492614746100,54,99,100,77,81,15509,0,0,0,0,2147123940,2147771840,2147574125,2147567259,327,2,13,24454
1362960156,5810,1010.6900024414062000,43.8765296936035160,575.3035888671875000,4.0106282234191895,55.1089897155761700,55,100,98,77,82,15512,0,0,0,0,2147122925,2147775488,2147575104,2147562715,391,2,13,19523
1362963756,5807,1006.8400268554688000,44.0736503601074200,575.6879882812500000,3.9986650943756104,55.0846900939941400,54,100,101,78,81,15509,0,0,0,0,2147121453,2147775963,2147576137,2147571702,186,2,13,64387
1362967356,5808,1011.5999755859375000,44.1588401794433600,575.4291992187500000,4.0067200660705570,55.0733604431152340,54,97,100,79,81,15508,0,0,0,0,2147126811,2147776630,2147571675,2147571437,292,2,13,62154
1362970956,5808,1014.9199829101562000,44.3455200195312500,575.3939208984375000,4.0078182220458980,55.0454483032226560,55,97,100,78,80,15506,0,0,0,0,2147123757,2147773897,2147571410,2147568246,3585,2,13,45937
1362974556,5811,1016.9600219726562000,43.7738800048828100,574.8925170898438000,4.0234241485595700,55.1143493652343750,55,99,99,78,82,15504,0,0,0,0,2147124864,2147774875,2147572982,2147568182,3470,2,13,45971
1362978156,5812,1018.2000122070312000,43.3151893615722660,574.8994140625000000,4.0232071876525880,55.1805610656738300,55,96,99,78,82,15506,0,0,0,0,2147123584,2147770413,2147573257,2147566436,3503,2,13,48894
1362981756,5809,1018.3699951171875000,43.6423606872558600,574.5947875976562000,4.0326838493347170,55.1294403076171900,55,99,101,77,82,15504,0,0,0,0,2147120073,2147771017,2147575835,2147569161,173,2,13,39751
1362985356,5808,1016.0700073242188000,42.6627006530761700,574.0610961914062000,4.0492901802062990,55.2696189880371100,56,97,100,78,82,15507,0,0,0,0,2147125449,2147774189,2147578779,2147569133,398,2,13,11344
1362988956,5811,1018.6900024414062000,42.3708190917968750,574.0952148437500000,4.0482292175292970,55.3115806579589840,55,96,101,78,82,15505,0,0,0,0,2147124644,2147770304,2147573056,2147568658,72,2,13,38822
1362992556,5808,1018.6900024414062000,42.6167106628418000,574.1348876953125000,4.0469927787780760,55.2731285095214840,55,98,99,77,81,15506,0,0,0,0,2147121974,2147776301,2147573229,2147568557,66,2,13,39423
1362996156,5809,1022.7500000000000000,42.6571388244628900,574.3001708984375000,4.0418529510498050,55.2722282409668000,55,98,100,78,81,15485,0,0,0,0,2147121334,2147768950,2147570633,2147569938,680,2,13,24313
1362999756,5813,1017.8800048828125000,42.9284400939941400,574.2606811523438000,4.0430788993835450,55.2323799133300800,54,97,101,78,82,15506,0,0,0,0,2147127396,2147772690,2147572845,2147567817,3450,2,13,38397
1363003356,5808,1017.6300048828125000,43.4310989379882800,574.2249755859375000,4.0441908836364750,55.1599998474121100,55,97,99,79,82,15501,0,0,0,0,2147123364,2147772644,2147574674,2147567945,249,2,13,11389
1363006956,5813,1017.3300170898438000,42.8620910644531250,574.1373901367188000,4.0469169616699220,55.2399101257324200,55,99,99,77,82,15505,0,0,0,0,2147124973,2147772525,2147576932,2147569481,3549,2,13,57149
1363010556,5809,1019.3699951171875000,43.6625595092773440,574.5545043945312000,4.0339388847351070,55.1277389526367200,55,98,100,77,82,15506,0,0,0,0,2147123163,2147772141,2147571264,2147567972,3323,2,13,37588
1363014156,5809,1021.2999877929688000,44.1179809570312500,574.6511230468750000,4.0309348106384280,55.0672988891601560,56,98,98,78,83,15501,0,0,0,0,2147121252,2147771081,2147574253,2147567780,208,2,13,51072
1363017756,5810,1014.7100219726562000,43.1653518676757800,575.0217895507812000,4.0193982124328610,55.2034111022949200,54,98,100,77,82,15505,0,0,0,0,2147124196,2147769115,2147575552,2147572589,373,2,13,9573
1363021356,5809,1017.8200073242188000,43.6009902954101560,575.4442138671875000,4.0062561035156250,55.1441993713378900,55,97,99,78,81,15496,0,0,0,0,2147122203,2147769161,2147577280,2147570907,192,2,13,34392
1363024956,5812,1021.5800170898438000,43.7197303771972660,574.3610839843750000,4.0399570465087890,55.1204490661621100,54,98,100,76,81,15495,0,0,0,0,2147126848,2147769133,2147573659,2147566080,99,2,13,63234
1363028556,5811,1020.5999755859375000,43.3598403930664060,574.2545166015625000,4.0432739257812500,55.1671905517578100,55,99,99,78,81,15496,0,0,0,0,2147126217,2147775332,2147571940,2147569572,3518,2,13,5151
1363032156,5809,1023.7999877929688000,43.5615501403808600,574.4174194335938000,4.0382041931152340,55.1426200866699200,54,106,100,78,81,15432,0,0,0,0,2147123748,2147776457,2147577462,2147573019,25,2,13,1018
1363033555,5808,1025.6800537109375000,43.2887306213378900,574.4053955078125000,4.0385780334472660,55.1801910400390600,55,97,100,77,82,15473,0,0,0,0,2147121737,2147775296,2147575524,2147566418,138,2,13,22934
